• In Hungary
  • List of Countries
  • For 7 days
  • Water Temperature
  • Satellite Maps
  • Weather Map
  • News
  • Weather Widgets
  • user-avatar
    Login

    Hourly Weather Laszkar Gah

    Today, 15 November, Thursday

    Time Temperature Precipitation Wind Pressure Humidity
    00:00 +12°C° 0 mm 2 mps 696 mmHg 29%
    01:00 +12°C° 0 mm 2 mps 696 mmHg 30%
    02:00 +11°C° 0 mm 1 mps 696 mmHg 31%
    03:00 +11°C° 0 mm 1 mps 696 mmHg 32%
    04:00 +10°C° 0 mm 1 mps 696 mmHg 33%
    05:00 +11°C° 0 mm 1 mps 697 mmHg 32%
    06:00 +11°C° 0 mm 1 mps 697 mmHg 31%
    07:00 +11°C° 0 mm 1 mps 698 mmHg 30%
    08:00 +13°C° 0 mm 1 mps 698 mmHg 26%
    09:00 +15°C° 0 mm 1 mps 699 mmHg 23%
    10:00 +18°C° 0 mm 1 mps 699 mmHg 19%
    11:00 +19°C° 0 mm 1 mps 699 mmHg 18%
    12:00 +21°C° 0 mm 1 mps 699 mmHg 16%
    13:00 +22°C° 0 mm 1 mps 698 mmHg 15%
    14:00 +22°C° 0 mm 1 mps 698 mmHg 15%
    15:00 +22°C° 0 mm 1 mps 698 mmHg 15%
    16:00 +22°C° 0 mm 1 mps 698 mmHg 15%
    17:00 +20°C° 0 mm 1 mps 698 mmHg 16%
    18:00 +19°C° 0 mm 1 mps 698 mmHg 18%
    19:00 +16°C° 0 mm 1 mps 698 mmHg 20%
    20:00 +16°C° 0 mm 1 mps 698 mmHg 20%
    21:00 +16°C° 0 mm 1 mps 698 mmHg 21%
    22:00 +15°C° 0 mm 1 mps 698 mmHg 22%
    23:00 +14°C° 0 mm 0 mps 697 mmHg 22%

    Tomorrow, 16 November, Friday

    Time Temperature Precipitation Wind Pressure Humidity
    00:00 +13°C° 0 mm 0 mps 697 mmHg 23%
    01:00 +13°C° 0 mm 0 mps 697 mmHg 24%
    02:00 +13°C° 0 mm 0 mps 697 mmHg 24%
    03:00 +13°C° 0 mm 0 mps 697 mmHg 25%
    04:00 +12°C° 0 mm 0 mps 697 mmHg 26%
    05:00 +13°C° 0 mm 0 mps 697 mmHg 25%
    06:00 +13°C° 0 mm 0 mps 697 mmHg 25%
    07:00 +13°C° 0 mm 0 mps 698 mmHg 25%
    08:00 +16°C° 0 mm 0 mps 698 mmHg 22%
    09:00 +18°C° 0 mm 0 mps 699 mmHg 20%
    10:00 +22°C° 0 mm 1 mps 699 mmHg 18%
    11:00 +23°C° 0 mm 2 mps 699 mmHg 17%
    12:00 +24°C° 0 mm 2 mps 698 mmHg 17%
    13:00 +25°C° 0 mm 3 mps 698 mmHg 17%
    14:00 +25°C° 0 mm 3 mps 698 mmHg 17%
    15:00 +25°C° 0 mm 4 mps 697 mmHg 18%
    16:00 +25°C° 0 mm 4 mps 697 mmHg 18%
    17:00 +22°C° 0 mm 3 mps 697 mmHg 20%
    18:00 +21°C° 0 mm 3 mps 697 mmHg 22%
    19:00 +20°C° 0 mm 3 mps 697 mmHg 24%
    20:00 +19°C° 0 mm 3 mps 697 mmHg 25%
    21:00 +18°C° 0 mm 2 mps 697 mmHg 25%
    22:00 +18°C° 0 mm 2 mps 697 mmHg 26%
    23:00 +17°C° 0 mm 2 mps 696 mmHg 27%

    Day after tomorrow, 17 November, Saturday

    Time Temperature Precipitation Wind Pressure Humidity
    00:00 +17°C° 0 mm 2 mps 696 mmHg 28%
    01:00 +16°C° 0 mm 1 mps 696 mmHg 29%
    02:00 +16°C° 0 mm 1 mps 695 mmHg 30%
    03:00 +15°C° 0 mm 1 mps 695 mmHg 31%
    04:00 +15°C° 0 mm 1 mps 694 mmHg 32%
    05:00 +15°C° 0 mm 1 mps 695 mmHg 32%
    06:00 +15°C° 0 mm 1 mps 695 mmHg 32%
    07:00 +16°C° 0 mm 1 mps 695 mmHg 31%
    08:00 +19°C° 0 mm 1 mps 696 mmHg 28%
    09:00 +21°C° 0 mm 1 mps 696 mmHg 25%
    10:00 +23°C° 0 mm 2 mps 697 mmHg 22%
    11:00 +24°C° 0 mm 2 mps 696 mmHg 21%
    12:00 +25°C° 0 mm 3 mps 695 mmHg 20%
    13:00 +27°C° 0 mm 4 mps 695 mmHg 20%
    14:00 +26°C° 0 mm 4 mps 695 mmHg 20%
    15:00 +26°C° 0 mm 4 mps 694 mmHg 21%
    16:00 +26°C° 0 mm 5 mps 694 mmHg 22%
    17:00 +25°C° 0 mm 4 mps 694 mmHg 24%
    18:00 +22°C° 0 mm 4 mps 694 mmHg 26%
    19:00 +21°C° 0 mm 4 mps 694 mmHg 28%
    20:00 +21°C° 0 mm 4 mps 694 mmHg 29%
    21:00 +20°C° 0 mm 4 mps 694 mmHg 31%
    22:00 +19°C° 0 mm 3 mps 694 mmHg 33%
    23:00 +19°C° 0 mm 3 mps 694 mmHg 35%

    18 November, Sunday

    Time Temperature Precipitation Wind Pressure Humidity
    00:00 +19°C° 0 mm 3 mps 694 mmHg 38%
    01:00 +18°C° 0 mm 3 mps 694 mmHg 41%
    02:00 +18°C° 0 mm 3 mps 694 mmHg 43%
    03:00 +17°C° 0 mm 3 mps 693 mmHg 46%
    04:00 +17°C° 0 mm 2 mps 693 mmHg 49%
    05:00 +17°C° 0 mm 2 mps 694 mmHg 49%
    06:00 +17°C° 0 mm 2 mps 694 mmHg 49%
    07:00 +17°C° 0 mm 2 mps 694 mmHg 50%
    08:00 +19°C° 0 mm 2 mps 695 mmHg 45%
    09:00 +20°C° 0 mm 3 mps 696 mmHg 39%
    10:00 +22°C° 0 mm 3 mps 696 mmHg 34%
    11:00 +23°C° 0 mm 4 mps 696 mmHg 31%
    12:00 +25°C° 0 mm 4 mps 695 mmHg 28%
    13:00 +26°C° 0 mm 5 mps 695 mmHg 26%
    14:00 +26°C° 0 mm 5 mps 695 mmHg 25%
    15:00 +25°C° 0 mm 5 mps 695 mmHg 25%
    16:00 +25°C° 0 mm 5 mps 694 mmHg 25%
    17:00 +22°C° 0 mm 5 mps 695 mmHg 28%
    18:00 +21°C° 0 mm 4 mps 695 mmHg 31%
    19:00 +19°C° 0 mm 3 mps 695 mmHg 33%
    20:00 +19°C° 0 mm 3 mps 695 mmHg 35%
    21:00 +18°C° 0 mm 3 mps 695 mmHg 37%
    22:00 +17°C° 0 mm 3 mps 695 mmHg 39%
    23:00 +16°C° 0 mm 2 mps 695 mmHg 41%

    19 November, Monday

    Time Temperature Precipitation Wind Pressure Humidity
    00:00 +16°C° 0 mm 2 mps 695 mmHg 43%
    01:00 +15°C° 0 mm 1 mps 695 mmHg 44%
    02:00 +15°C° 0 mm 1 mps 695 mmHg 46%
    03:00 +14°C° 0 mm 1 mps 695 mmHg 47%
    04:00 +14°C° 0 mm 1 mps 695 mmHg 48%
    05:00 +14°C° 0 mm 1 mps 695 mmHg 48%
    06:00 +14°C° 0 mm 1 mps 696 mmHg 47%
    07:00 +14°C° 0 mm 1 mps 696 mmHg 47%
    08:00 +16°C° 0 mm 1 mps 697 mmHg 41%
    09:00 +19°C° 0 mm 1 mps 698 mmHg 36%
    10:00 +21°C° 0 mm 1 mps 698 mmHg 31%
    11:00 +22°C° 0 mm 1 mps 698 mmHg 29%
    12:00 +22°C° 0 mm 1 mps 698 mmHg 26%
    13:00 +23°C° 0 mm 1 mps 697 mmHg 24%
    14:00 +23°C° 0 mm 1 mps 697 mmHg 23%
    15:00 +23°C° 0 mm 1 mps 697 mmHg 23%
    16:00 +23°C° 0 mm 1 mps 697 mmHg 22%
    17:00 +22°C° 0 mm 1 mps 697 mmHg 25%
    18:00 +20°C° 0 mm 1 mps 697 mmHg 28%
    19:00 +18°C° 0 mm 1 mps 697 mmHg 31%
    20:00 +18°C° 0 mm 1 mps 697 mmHg 32%
    21:00 +16°C° 0 mm 1 mps 697 mmHg 34%
    22:00 +16°C° 0 mm 1 mps 697 mmHg 35%
    23:00 +15°C° 0 mm 1 mps 697 mmHg 37%

    20 November, Tuesday

    Time Temperature Precipitation Wind Pressure Humidity
    00:00 +15°C° 0 mm 1 mps 697 mmHg 38%
    01:00 +14°C° 0 mm 1 mps 697 mmHg 39%
    02:00 +14°C° 0 mm 1 mps 696 mmHg 40%
    03:00 +14°C° 0 mm 1 mps 696 mmHg 42%
    04:00 +13°C° 0 mm 1 mps 696 mmHg 43%
    05:00 +13°C° 0 mm 1 mps 697 mmHg 42%
    06:00 +14°C° 0 mm 1 mps 697 mmHg 41%
    07:00 +14°C° 0 mm 1 mps 698 mmHg 40%
    08:00 +16°C° 0 mm 1 mps 698 mmHg 35%
    09:00 +20°C° 0 mm 1 mps 699 mmHg 30%
    10:00 +22°C° 0 mm 1 mps 700 mmHg 25%
    11:00 +23°C° 0 mm 1 mps 699 mmHg 23%
    12:00 +23°C° 0 mm 1 mps 698 mmHg 21%
    13:00 +22°C° 0 mm 0 mps 698 mmHg 19%
    14:00 +22°C° 0 mm 0 mps 698 mmHg 19%
    15:00 +24°C° 0 mm 1 mps 697 mmHg 19%
    16:00 +23°C° 0 mm 1 mps 697 mmHg 19%
    17:00 +22°C° 0 mm 1 mps 697 mmHg 20%
    18:00 +20°C° 0 mm 2 mps 697 mmHg 22%
    19:00 +19°C° 0 mm 2 mps 697 mmHg 23%
    20:00 +19°C° 0 mm 2 mps 697 mmHg 23%
    21:00 +19°C° 0 mm 3 mps 697 mmHg 22%
    22:00 +19°C° 0 mm 3 mps 697 mmHg 22%
    23:00 +18°C° 0 mm 4 mps 697 mmHg 23%
    Show more